<?xml version="1.0"?>
<gpx xmlns="http://www.topografix.com/GPX/1/1" xmlns:xsi="http://www.w3.org/2001/XMLSchema-instance" version="1.1" creator="GPX RubyGem 1.0.0 -- http://dougfales.github.io/gpx/" xsi:schemaLocation="http://www.topografix.com/GPX/1/1 http://www.topografix.com/GPX/1/1/gpx.xsd">
  <metadata>
    <name/>
    <time>2026-05-10T12:25:29+00:00</time>
    <bound minlat="90.0" minlon="180.0" maxlat="-90.0" maxlon="-180.0"/>
  </metadata>
  <trk>
    <name/>
    <trkseg>
      <trkpt lat="50.445503" lon="6.889166">
        <time>1970-01-01T00:00:00+00:00</time>
        <ele>283.0</ele>
      </trkpt>
      <trkpt lat="50.445505" lon="6.889114">
        <time>1970-01-01T00:00:00+00:00</time>
        <ele>284.0</ele>
      </trkpt>
      <trkpt lat="50.445495" lon="6.888926">
        <time>1970-01-01T00:00:00+00:00</time>
        <ele>286.0</ele>
      </trkpt>
      <trkpt lat="50.445478" lon="6.888739">
        <time>1970-01-01T00:00:00+00:00</time>
        <ele>288.0</ele>
      </trkpt>
      <trkpt lat="50.445332" lon="6.8889">
        <time>1970-01-01T00:00:00+00:00</time>
        <ele>297.0</ele>
      </trkpt>
      <trkpt lat="50.445285" lon="6.888948">
        <time>1970-01-01T00:00:00+00:00</time>
        <ele>298.0</ele>
      </trkpt>
      <trkpt lat="50.445211" lon="6.889034">
        <time>1970-01-01T00:00:00+00:00</time>
        <ele>301.0</ele>
      </trkpt>
      <trkpt lat="50.445185" lon="6.888997">
        <time>1970-01-01T00:00:00+00:00</time>
        <ele>303.0</ele>
      </trkpt>
      <trkpt lat="50.445082" lon="6.889051">
        <time>1970-01-01T00:00:00+00:00</time>
        <ele>309.0</ele>
      </trkpt>
      <trkpt lat="50.444898" lon="6.88919">
        <time>1970-01-01T00:00:00+00:00</time>
        <ele>318.0</ele>
      </trkpt>
      <trkpt lat="50.444628" lon="6.889345">
        <time>1970-01-01T00:00:00+00:00</time>
        <ele>327.0</ele>
      </trkpt>
      <trkpt lat="50.444292" lon="6.889702">
        <time>1970-01-01T00:00:00+00:00</time>
        <ele>330.0</ele>
      </trkpt>
      <trkpt lat="50.443838" lon="6.889895">
        <time>1970-01-01T00:00:00+00:00</time>
        <ele>341.0</ele>
      </trkpt>
      <trkpt lat="50.443422" lon="6.889947">
        <time>1970-01-01T00:00:00+00:00</time>
        <ele>351.0</ele>
      </trkpt>
      <trkpt lat="50.443265" lon="6.890178">
        <time>1970-01-01T00:00:00+00:00</time>
        <ele>354.0</ele>
      </trkpt>
      <trkpt lat="50.443038" lon="6.890341">
        <time>1970-01-01T00:00:00+00:00</time>
        <ele>360.0</ele>
      </trkpt>
      <trkpt lat="50.442849" lon="6.891025">
        <time>1970-01-01T00:00:00+00:00</time>
        <ele>364.0</ele>
      </trkpt>
      <trkpt lat="50.442664" lon="6.891181">
        <time>1970-01-01T00:00:00+00:00</time>
        <ele>367.0</ele>
      </trkpt>
      <trkpt lat="50.442622" lon="6.89134">
        <time>1970-01-01T00:00:00+00:00</time>
        <ele>367.0</ele>
      </trkpt>
      <trkpt lat="50.442622" lon="6.89134">
        <time>1970-01-01T00:00:00+00:00</time>
        <ele>367.0</ele>
      </trkpt>
      <trkpt lat="50.442664" lon="6.891181">
        <time>1970-01-01T00:00:00+00:00</time>
        <ele>367.0</ele>
      </trkpt>
      <trkpt lat="50.442849" lon="6.891025">
        <time>1970-01-01T00:00:00+00:00</time>
        <ele>364.0</ele>
      </trkpt>
      <trkpt lat="50.443038" lon="6.890341">
        <time>1970-01-01T00:00:00+00:00</time>
        <ele>360.0</ele>
      </trkpt>
      <trkpt lat="50.443265" lon="6.890178">
        <time>1970-01-01T00:00:00+00:00</time>
        <ele>354.0</ele>
      </trkpt>
      <trkpt lat="50.443422" lon="6.889947">
        <time>1970-01-01T00:00:00+00:00</time>
        <ele>351.0</ele>
      </trkpt>
      <trkpt lat="50.443838" lon="6.889895">
        <time>1970-01-01T00:00:00+00:00</time>
        <ele>341.0</ele>
      </trkpt>
      <trkpt lat="50.444292" lon="6.889702">
        <time>1970-01-01T00:00:00+00:00</time>
        <ele>330.0</ele>
      </trkpt>
      <trkpt lat="50.444628" lon="6.889345">
        <time>1970-01-01T00:00:00+00:00</time>
        <ele>327.0</ele>
      </trkpt>
      <trkpt lat="50.444898" lon="6.88919">
        <time>1970-01-01T00:00:00+00:00</time>
        <ele>318.0</ele>
      </trkpt>
      <trkpt lat="50.445082" lon="6.889051">
        <time>1970-01-01T00:00:00+00:00</time>
        <ele>309.0</ele>
      </trkpt>
      <trkpt lat="50.445185" lon="6.888997">
        <time>1970-01-01T00:00:00+00:00</time>
        <ele>303.0</ele>
      </trkpt>
      <trkpt lat="50.445211" lon="6.889034">
        <time>1970-01-01T00:00:00+00:00</time>
        <ele>301.0</ele>
      </trkpt>
      <trkpt lat="50.445285" lon="6.888948">
        <time>1970-01-01T00:00:00+00:00</time>
        <ele>298.0</ele>
      </trkpt>
      <trkpt lat="50.445332" lon="6.8889">
        <time>1970-01-01T00:00:00+00:00</time>
        <ele>297.0</ele>
      </trkpt>
      <trkpt lat="50.445478" lon="6.888739">
        <time>1970-01-01T00:00:00+00:00</time>
        <ele>288.0</ele>
      </trkpt>
      <trkpt lat="50.445495" lon="6.888926">
        <time>1970-01-01T00:00:00+00:00</time>
        <ele>286.0</ele>
      </trkpt>
      <trkpt lat="50.445505" lon="6.889114">
        <time>1970-01-01T00:00:00+00:00</time>
        <ele>284.0</ele>
      </trkpt>
      <trkpt lat="50.445503" lon="6.889166">
        <time>1970-01-01T00:00:00+00:00</time>
        <ele>283.0</ele>
      </trkpt>
    </trkseg>
  </trk>
</gpx>
